QPF
0.00 0.00 0.00 0.00 0.00 0.00 0.00 0.00 0.00 0.00 0.00 0.00 0.00 0.00 0.00 0.00 0.00 0.00 0.00 0.00 0.00 0.00 0.00 0.00 0.00 0.00 0.00 0.00 0.00 0.00 0.00 0.00 0.00 0.00 0.00 0.00 0.00 0.01 0.01 0.00 0.00 0.00 0.00 0.00
0.00 0.00 0.00 0.00 0.00 0.00 0.00 0.00 0.00 0.00 0.00 0.00 0.00 0.00 0.00 0.00 0.00 0.00 0.00 0.00 0.00 0.00 0.00 0.00 0.00 0.00 0.00 0.00 0.00 0.00 0.00 0.00 0.01 0.00 0.00 0.01 0.01 0.00 0.02 0.01 0.00 0.00 0.00 0.00
0.00 0.00 0.00 0.00 0.00 0.00 0.00 0.00 0.00 0.00 0.00 0.00 0.00 0.00 0.00 0.00 0.00 0.00 0.00 0.00 0.00 0.00 0.00 0.00 0.00 0.00 0.00 0.00 0.00 0.00 0.00 0.00 0.00 0.00 0.01 0.04 0.01 0.00 0.01 0.00 0.00 0.00 0.01 0.00
0.00 0.00 0.00 0.00 0.00 0.00 0.00 0.00 0.00 0.00 0.00 0.00 0.00 0.01 0.00 0.00 0.00 0.00 0.00 0.00 0.00 0.00 0.00 0.00 0.00 0.00 0.00 0.00 0.00 0.00 0.00 0.00 0.00 0.00 0.00 0.00 0.00 0.00 0.00 0.00 0.01 0.03 0.04 0.02
0.00 0.00 0.00 0.00 0.00 0.00 0.00 0.00 0.00 0.00 0.00 0.00 0.00 0.00 0.00 0.00 0.04 0.03 0.02 0.01 0.00 0.00 0.00 0.00 0.00 0.00 0.00 0.00 0.00 0.00 0.00 0.00 0.00 0.00 0.00 0.00 0.00 0.00 0.00 0.00 0.00 0.03 0.03 0.09
0.00 0.00 0.00 0.00 0.00 0.00 0.00 0.00 0.00 0.00 0.00 0.00 0.00 0.01 0.01 0.13 0.28 0.20 0.13 0.07 0.03 0.01 0.00 0.00 0.00 0.00 0.00 0.00 0.00 0.00 0.00 0.00 0.00 0.00 0.00 0.00 0.00 0.00 0.00 0.00 0.00 0.01 0.04 0.08
0.00 0.00 0.00 0.00 0.00 0.00 0.00 0.00 0.00 0.00 0.00 0.00 0.00 0.01 0.04 0.10 0.16 0.13 0.14 0.12 0.07 0.03 0.01 0.01 0.00 0.00 0.00 0.00 0.00 0.00 0.00 0.00 0.00 0.00 0.00 0.00 0.00 0.00 0.01 0.00 0.00 0.01 0.05 0.02
0.00 0.00 0.00 0.00 0.00 0.00 0.00 0.00 0.00 0.00 0.00 0.00 0.01 0.07 0.14 0.16 0.17 0.18 0.45 0.25 0.14 0.08 0.02 0.01 0.00 0.00 0.00 0.00 0.00 0.00 0.01 0.02 0.02 0.02 0.02 0.02 0.02 0.02 0.02 0.01 0.02 0.04 0.07 0.02
0.01 0.00 0.00 0.00 0.00 0.00 0.00 0.00 0.00 0.00 0.00 0.01 0.11 0.23 0.14 0.10 0.15 0.20 0.23 0.20 0.20 0.11 0.03 0.00 0.01 0.01 0.01 0.01 0.02 0.01 0.02 0.01 0.01 0.01 0.02 0.03 0.02 0.02 0.01 0.02 0.03 0.02 0.02 0.07
0.01 0.03 0.00 0.00 0.00 0.00 0.00 0.00 0.00 0.00 0.01 0.05 0.13 0.15 0.10 0.05 0.07 0.14 0.23 0.39 0.23 0.21 0.08 0.02 0.00 0.00 0.01 0.01 0.01 0.01 0.01 0.00 0.01 0.01 0.00 0.00 0.00 0.00 0.00 0.01 0.02 0.01 0.04 0.06
0.01 0.03 0.00 0.00 0.00 0.00 0.00 0.00 0.00 0.01 0.03 0.05 0.05 0.06 0.06 0.07 0.09 0.16 0.28 0.39 0.50 0.32 0.37 0.18 0.09 0.01 0.00 0.01 0.01 0.00 0.00 0.00 0.00 0.00 0.00 0.00 0.00 0.00 0.00 0.00 0.00 0.01 0.02 0.07
0.00 0.04 0.02 0.00 0.00 0.00 0.01 0.01 0.00 0.01 0.00 0.01 0.04 0.04 0.05 0.08 0.10 0.09 0.12 0.16 0.20 0.31 0.26 0.32 0.28 0.22 0.02 0.01 0.00 0.00 0.00 0.01 0.00 0.00 0.00 0.00 0.00 0.00 0.00 0.00 0.00 0.01 0.01 0.01
0.04 0.04 0.01 0.00 0.00 0.00 0.00 0.01 0.02 0.00 0.00 0.00 0.03 0.06 0.07 0.07 0.06 0.08 0.08 0.07 0.08 0.08 0.16 0.29 0.20 0.19 0.08 0.02 0.00 0.00 0.01 0.00 0.00 0.00 0.00 0.00 0.00 0.00 0.00 0.01 0.01 0.01 0.02 0.02
0.06 0.03 0.01 0.04 0.05 0.04 0.02 0.00 0.01 0.01 0.00 0.02 0.06 0.06 0.05 0.05 0.05 0.06 0.07 0.07 0.07 0.07 0.07 0.11 0.21 0.18 0.14 0.02 0.00 0.00 0.00 0.00 0.00 0.00 0.00 0.00 0.00 0.00 0.00 0.00 0.01 0.01 0.02 0.03
0.01 0.04 0.08 0.05 0.03 0.05 0.06 0.06 0.03 0.02 0.05 0.04 0.06 0.06 0.08 0.07 0.06 0.06 0.07 0.08 0.02 0.02 0.02 0.02 0.01 0.02 0.04 0.01 0.00 0.00 0.00 0.00 0.00 0.00 0.00 0.00 0.00 0.00 0.00 0.00 0.00 0.01 0.02 0.02
0.00 0.01 0.05 0.02 0.01 0.05 0.09 0.07 0.04 0.01 0.03 0.04 0.06 0.07 0.07 0.07 0.08 0.09 0.08 0.07 0.03 0.00 0.00 0.00 0.00 0.00 0.00 0.00 0.00 0.00 0.00 0.00 0.00 0.00 0.00 0.00 0.00 0.00 0.00 0.00 0.00 0.00 0.00 0.02
0.00 0.02 0.02 0.02 0.01 0.01 0.03 0.13 0.08 0.03 0.02 0.02 0.03 0.04 0.06 0.07 0.07 0.07 0.07 0.07 0.03 0.01 0.00 0.00 0.01 0.01 0.01 0.01 0.00 0.00 0.00 0.00 0.00 0.00 0.00 0.00 0.00 0.00 0.00 0.00 0.00 0.00 0.00 0.00
0.00 0.02 0.02 0.03 0.04 0.03 0.04 0.06 0.07 0.04 0.03 0.01 0.01 0.02 0.04 0.04 0.03 0.04 0.03 0.01 0.00 0.00 0.00 0.00 0.01 0.01 0.00 0.00 0.00 0.00 0.00 0.00 0.00 0.00 0.00 0.00 0.00 0.00 0.00 0.00 0.00 0.00 0.00 0.00
0.00 0.01 0.05 0.02 0.01 0.01 0.02 0.01 0.01 0.02 0.02 0.01 0.01 0.01 0.02 0.03 0.01 0.00 0.00 0.00 0.00 0.00 0.00 0.00 0.00 0.00 0.00 0.00 0.00 0.00 0.00 0.00 0.00 0.00 0.00 0.00 0.00 0.00 0.00 0.00 0.00 0.00 0.00 0.00
0.00 0.03 0.09 0.00 0.00 0.00 0.00 0.00 0.00 0.00 0.01 0.00 0.00 0.00 0.00 0.01 0.00 0.00 0.00 0.00 0.00 0.00 0.00 0.00 0.00 0.00 0.00 0.00 0.00 0.00 0.00 0.00 0.00 0.00 0.00 0.00 0.00 0.00 0.00 0.00 0.00 0.00 0.00 0.00
0.00 0.02 0.08 0.02 0.00 0.00 0.00 0.00 0.00 0.00 0.01 0.00 0.00 0.00 0.00 0.00 0.00 0.00 0.00 0.00 0.00 0.00 0.00 0.00 0.00 0.00 0.00 0.00 0.00 0.00 0.00 0.00 0.00 0.00 0.00 0.00 0.00 0.00 0.00 0.00 0.00 0.00 0.00 0.00
0.00 0.00 0.02 0.04 0.01 0.00 0.00 0.01 0.01 0.01 0.01 0.00 0.00 0.00 0.00 0.00 0.00 0.00 0.00 0.00 0.00 0.00 0.00 0.00 0.00 0.00 0.00 0.00 0.00 0.00 0.00 0.00 0.00 0.00 0.00 0.00 0.00 0.00 0.00 0.00 0.00 0.00 0.00 0.00
0.00 0.00 0.00 0.02 0.01 0.00 0.01 0.00 0.00 0.00 0.00 0.00 0.00 0.00 0.00 0.00 0.00 0.00 0.00 0.00 0.00 0.00 0.00 0.00 0.00 0.00 0.00 0.00 0.00 0.00 0.00 0.00 0.00 0.00 0.00 0.00 0.00 0.00 0.00 0.00 0.00 0.00 0.00 0.00
0.00 0.00 0.00 0.00 0.00 0.00 0.00 0.00 0.00 0.00 0.00 0.00 0.00 0.00 0.00 0.00 0.00 0.00 0.00 0.00 0.00 0.00 0.00 0.00 0.00 0.00 0.00 0.00 0.00 0.00 0.00 0.00 0.00 0.00 0.00 0.00 0.00 0.00 0.00 0.00 0.00 0.00 0.00 0.00
0.00 0.00 0.00 0.00 0.01 0.00 0.00 0.00 0.00 0.00 0.00 0.00 0.00 0.00 0.00 0.00 0.00 0.00 0.00 0.00 0.00 0.00 0.00 0.00 0.00 0.00 0.00 0.00 0.00 0.00 0.00 0.00 0.00 0.00 0.00 0.00 0.00 0.00 0.00 0.00 0.00 0.00 0.01 0.01
0.00 0.00 0.00 0.00 0.00 0.00 0.00 0.00 0.00 0.00 0.00 0.00 0.00 0.00 0.00 0.00 0.00 0.00 0.00 0.00 0.00 0.00 0.00 0.00 0.00 0.00 0.00 0.00 0.00 0.00 0.00 0.00 0.00 0.00 0.00 0.00 0.00 0.00 0.00 0.00 0.00 0.00 0.00 0.00
MSLP
1017.32 1017.17 1016.92 1017.00 1017.02 1016.63 1016.63 1016.53 1015.73 1014.28 1013.78 1014.70 1013.38 1012.62 1010.68 1009.57 1009.79 1009.01 1008.20 1008.21 1007.46 1006.37 1005.61 1005.72 1005.57 1005.19 1004.50 1004.33 1003.64 1003.54 1004.10 1004.68 1005.73 1006.83 1007.54 1007.93 1008.23 1008.83 1009.32 1009.51 1009.43 1009.90 1010.67 1011.31
1017.79 1017.05 1016.75 1017.04 1017.04 1016.99 1017.05 1016.74 1015.25 1014.11 1013.79 1013.87 1012.59 1011.93 1010.72 1009.28 1008.49 1008.92 1008.74 1007.98 1007.37 1006.83 1006.26 1006.56 1006.71 1006.31 1005.98 1005.52 1005.00 1004.17 1003.94 1004.00 1004.90 1005.56 1006.07 1006.86 1007.52 1008.07 1008.64 1008.83 1008.90 1009.12 1009.59 1009.98
1017.58 1016.80 1016.76 1017.06 1016.79 1016.65 1016.41 1016.38 1015.52 1015.22 1013.80 1013.00 1012.36 1010.78 1010.12 1009.22 1008.78 1009.56 1010.22 1010.15 1009.58 1009.34 1008.64 1008.15 1007.97 1007.81 1006.97 1006.47 1006.05 1005.38 1004.36 1004.11 1004.24 1004.84 1005.56 1006.46 1007.17 1007.75 1008.12 1008.25 1008.37 1008.61 1009.16 1009.41
1017.61 1016.95 1017.03 1016.95 1016.69 1016.44 1015.68 1015.84 1015.66 1015.12 1014.83 1013.31 1013.15 1010.84 1010.25 1010.04 1009.93 1011.16 1011.53 1011.38 1011.20 1010.77 1010.43 1009.80 1009.17 1008.75 1008.09 1007.36 1006.85 1006.01 1004.89 1004.49 1004.66 1004.56 1004.78 1005.74 1005.94 1006.34 1006.63 1007.03 1007.67 1008.19 1008.64 1008.80
1017.11 1016.98 1016.95 1016.64 1015.89 1015.83 1015.34 1015.34 1015.20 1014.92 1014.60 1014.03 1012.20 1012.86 1010.80 1011.81 1012.54 1012.85 1013.27 1012.97 1012.52 1011.97 1011.44 1010.95 1010.35 1009.90 1009.02 1008.36 1007.75 1006.86 1005.92 1005.35 1005.52 1005.16 1005.10 1005.57 1005.96 1005.87 1006.00 1006.50 1006.97 1007.44 1007.91 1008.56
1017.05 1016.81 1016.54 1015.78 1015.53 1015.43 1015.21 1015.25 1014.53 1014.26 1014.43 1013.76 1012.88 1013.62 1013.05 1014.43 1015.27 1014.96 1014.79 1014.49 1013.70 1012.86 1012.40 1011.82 1011.18 1010.66 1009.78 1009.16 1008.27 1007.58 1006.66 1006.33 1006.24 1006.01 1006.05 1006.10 1006.13 1006.12 1006.48 1006.52 1006.55 1006.65 1007.03 1007.63
1016.74 1015.96 1015.64 1015.59 1015.38 1015.21 1015.21 1015.08 1014.08 1013.84 1013.82 1012.66 1012.51 1013.34 1015.45 1016.28 1016.70 1016.76 1016.32 1015.87 1014.88 1013.99 1013.32 1012.73 1011.77 1011.34 1010.58 1009.81 1009.11 1008.55 1007.44 1007.39 1007.29 1007.20 1007.19 1007.08 1006.87 1007.21 1007.05 1006.55 1006.40 1006.26 1006.58 1006.93
1016.93 1015.62 1015.17 1014.86 1014.57 1014.27 1014.51 1014.36 1014.04 1013.59 1013.03 1012.67 1012.59 1014.00 1016.40 1017.46 1017.83 1017.70 1017.35 1016.92 1016.05 1015.01 1014.37 1013.70 1012.85 1012.36 1011.44 1010.53 1010.04 1009.50 1008.88 1008.70 1008.74 1008.20 1007.91 1007.57 1007.71 1008.40 1007.74 1007.29 1006.80 1006.17 1005.99 1005.99
1017.12 1016.13 1014.75 1014.29 1013.86 1013.86 1014.03 1013.73 1013.46 1013.66 1013.31 1013.38 1013.43 1015.33 1016.51 1017.64 1018.30 1018.37 1018.02 1017.47 1016.57 1016.12 1015.33 1014.52 1013.89 1013.28 1012.40 1011.64 1011.12 1010.53 1010.43 1010.32 1010.10 1009.14 1009.25 1008.07 1009.18 1008.91 1007.91 1007.83 1007.33 1006.48 1005.71 1005.76
1017.48 1016.08 1014.20 1013.59 1013.54 1013.23 1012.96 1013.00 1013.29 1013.63 1013.39 1013.15 1014.00 1015.87 1017.67 1018.46 1018.96 1019.16 1018.75 1018.31 1017.95 1017.22 1016.41 1015.78 1015.16 1014.29 1013.56 1012.93 1012.40 1011.71 1011.39 1011.17 1010.61 1008.52 1008.83 1010.40 1009.26 1008.57 1008.49 1008.26 1007.35 1006.39 1005.88 1005.59
1017.25 1016.89 1014.55 1014.03 1013.14 1012.56 1012.99 1012.83 1013.07 1013.27 1013.63 1013.79 1014.74 1017.24 1019.15 1019.90 1020.24 1020.20 1020.00 1019.57 1018.95 1018.69 1017.84 1017.18 1016.29 1015.39 1014.83 1014.35 1013.65 1013.09 1012.64 1011.93 1011.52 1011.15 1011.73 1011.95 1011.09 1010.27 1009.67 1008.88 1008.09 1007.11 1005.62 1005.18
1016.99 1016.57 1015.10 1013.71 1012.87 1012.63 1012.56 1012.56 1012.81 1013.06 1013.26 1014.13 1015.65 1018.73 1020.18 1020.76 1021.17 1021.11 1021.16 1020.95 1020.48 1019.85 1019.35 1018.12 1017.57 1016.53 1015.75 1015.29 1014.78 1013.80 1013.13 1012.50 1012.81 1012.58 1012.26 1011.68 1011.14 1010.60 1010.09 1009.38 1008.49 1007.61 1006.45 1004.86
1017.30 1016.86 1015.89 1014.23 1013.61 1013.35 1013.39 1013.08 1013.06 1013.28 1013.74 1015.05 1016.82 1019.53 1021.01 1021.54 1021.83 1022.09 1022.22 1022.00 1021.63 1021.23 1020.49 1019.98 1018.37 1017.86 1016.93 1018.03 1016.76 1016.07 1015.42 1015.20 1014.66 1013.78 1013.07 1012.50 1012.14 1011.70 1011.11 1010.15 1009.17 1008.26 1007.22 1006.36
1017.12 1017.12 1016.93 1016.90 1016.79 1016.57 1014.92 1013.86 1013.65 1013.86 1014.67 1016.26 1018.44 1020.51 1021.74 1022.28 1022.59 1022.84 1023.06 1022.91 1022.66 1022.07 1021.45 1020.96 1020.24 1019.55 1018.74 1017.91 1017.29 1016.93 1016.96 1016.17 1014.98 1014.10 1013.63 1013.28 1012.91 1012.42 1011.77 1011.17 1010.30 1009.44 1008.63 1007.77
1016.97 1016.97 1017.16 1017.26 1017.48 1017.39 1016.53 1015.30 1015.00 1015.34 1016.21 1017.43 1019.99 1021.42 1022.77 1023.38 1023.69 1023.79 1023.87 1023.71 1023.16 1022.81 1022.33 1021.80 1021.11 1020.78 1020.20 1019.51 1019.14 1018.37 1017.36 1016.48 1016.12 1015.42 1014.85 1014.52 1014.21 1013.50 1012.78 1012.08 1011.36 1010.85 1010.00 1009.60
1016.95 1016.88 1016.89 1017.15 1017.39 1017.61 1017.64 1017.53 1017.23 1017.52 1018.19 1019.57 1020.84 1022.34 1023.77 1024.45 1024.69 1024.54 1024.49 1024.36 1024.30 1024.20 1023.98 1023.75 1023.24 1022.83 1022.09 1021.12 1020.21 1019.62 1018.65 1018.14 1017.48 1016.71 1016.41 1015.96 1015.40 1014.76 1014.11 1013.41 1012.53 1012.19 1011.42 1010.97
1017.24 1017.13 1016.78 1016.88 1017.25 1017.65 1018.51 1019.49 1019.12 1019.09 1019.66 1020.24 1021.43 1023.11 1024.25 1024.87 1025.22 1025.44 1025.49 1025.54 1025.37 1025.29 1025.43 1025.25 1024.97 1024.49 1023.78 1022.73 1021.68 1020.71 1020.23 1019.63 1018.30 1017.88 1017.57 1017.10 1016.49 1015.85 1015.34 1014.89 1014.22 1013.39 1013.02 1012.61
1017.44 1017.09 1016.83 1016.66 1017.08 1018.21 1019.84 1020.38 1020.49 1020.56 1021.24 1021.88 1022.60 1023.57 1024.47 1025.17 1025.94 1026.47 1026.80 1026.78 1026.69 1026.48 1026.19 1025.89 1025.65 1025.09 1024.46 1023.67 1022.46 1021.60 1020.64 1020.25 1020.00 1019.49 1019.05 1018.53 1017.85 1017.23 1016.61 1016.10 1015.56 1014.99 1014.40 1013.92
1017.59 1017.07 1016.67 1016.76 1017.58 1019.09 1019.95 1020.76 1020.99 1020.93 1022.07 1022.65 1022.99 1023.80 1024.45 1025.19 1025.43 1026.82 1027.54 1027.70 1027.73 1027.32 1026.99 1026.75 1026.49 1026.11 1025.38 1024.40 1023.47 1022.55 1021.95 1021.76 1021.52 1020.87 1020.38 1019.87 1019.21 1018.55 1017.88 1017.33 1016.96 1016.44 1015.94 1015.55
1017.28 1016.97 1016.79 1017.13 1017.87 1019.26 1020.59 1021.17 1021.25 1021.21 1022.27 1023.22 1023.61 1023.91 1024.34 1024.69 1025.61 1027.59 1028.38 1028.51 1028.48 1028.04 1027.59 1027.31 1026.90 1026.72 1026.02 1025.33 1024.51 1023.83 1023.29 1022.72 1022.06 1021.96 1021.65 1021.14 1020.40 1019.85 1019.32 1018.76 1018.34 1017.98 1017.22 1016.76
1017.35 1017.42 1017.72 1017.98 1018.82 1020.30 1021.33 1021.50 1021.43 1021.95 1023.56 1023.74 1024.25 1024.58 1024.71 1025.56 1027.14 1028.29 1028.90 1029.02 1028.95 1028.56 1028.12 1027.92 1027.71 1027.47 1026.88 1026.12 1025.53 1024.83 1024.36 1024.12 1023.81 1023.17 1022.61 1021.87 1021.35 1020.87 1020.46 1019.75 1019.23 1018.98 1018.34 1017.61
1018.26 1018.26 1018.71 1019.33 1020.12 1021.41 1021.97 1021.82 1022.15 1023.12 1023.56 1024.17 1024.87 1025.49 1025.96 1026.81 1027.80 1028.61 1029.19 1029.41 1029.29 1029.16 1028.96 1028.77 1028.53 1028.04 1027.78 1027.24 1026.73 1026.13 1025.63 1025.24 1024.64 1024.07 1023.30 1022.77 1022.71 1022.27 1021.85 1021.30 1020.66 1020.16 1019.58 1018.89
1019.04 1019.21 1019.43 1020.61 1021.40 1022.34 1022.91 1022.98 1023.33 1023.63 1024.27 1024.99 1025.43 1026.05 1026.68 1027.53 1028.39 1029.09 1029.55 1029.81 1029.83 1029.69 1029.86 1029.73 1029.01 1028.83 1028.38 1028.14 1027.68 1027.21 1026.96 1025.87 1025.20 1024.54 1024.21 1024.07 1023.54 1023.12 1022.94 1022.29 1021.69 1021.05 1020.62 1020.24
1019.59 1019.80 1020.16 1021.23 1022.31 1022.89 1023.52 1024.02 1024.26 1024.55 1025.02 1025.64 1026.23 1026.84 1027.40 1028.06 1028.96 1029.60 1030.03 1030.33 1030.55 1030.63 1030.43 1030.05 1029.71 1029.50 1029.65 1029.33 1028.87 1028.48 1027.69 1026.99 1025.86 1025.47 1025.32 1024.62 1024.33 1024.05 1023.68 1023.31 1022.90 1022.52 1022.00 1021.49
1020.03 1020.27 1020.76 1021.65 1022.43 1023.33 1024.01 1024.43 1024.90 1025.33 1025.79 1026.43 1027.13 1027.62 1028.20 1028.82 1029.60 1030.12 1030.56 1030.91 1031.29 1031.30 1031.14 1031.04 1030.75 1030.53 1030.44 1029.93 1029.51 1029.23 1028.61 1027.62 1026.60 1026.71 1026.12 1025.75 1025.46 1025.00 1024.49 1024.39 1024.27 1023.72 1023.54 1023.07
1020.18 1020.42 1020.79 1021.13 1021.71 1022.61 1023.61 1024.48 1024.98 1025.50 1026.23 1026.83 1027.36 1028.11 1028.75 1029.16 1029.87 1030.53 1031.02 1031.43 1031.58 1031.59 1031.71 1031.57 1031.35 1031.18 1031.00 1030.71 1030.27 1029.91 1029.28 1028.41 1027.92 1027.42 1027.08 1026.87 1026.38 1026.12 1025.78 1025.35 1024.81 1024.82 1024.44 1024.02
Thickness
5548 5551 5551 5548 5544 5547 5540 5534 5537 5551 5553 5506 5525 5520 5557 5571 5555 5556 5559 5560 5581 5603 5621 5625 5633 5644 5658 5666 5680 5690 5690 5692 5687 5683 5685 5686 5687 5686 5686 5687 5688 5686 5681 5678
5537 5539 5543 5532 5528 5522 5514 5504 5517 5537 5524 5502 5510 5502 5517 5537 5541 5524 5523 5544 5554 5572 5586 5591 5603 5617 5626 5638 5652 5666 5679 5685 5684 5685 5689 5687 5683 5683 5682 5684 5686 5686 5683 5681
5528 5539 5529 5520 5518 5513 5507 5490 5496 5487 5503 5506 5495 5505 5505 5517 5515 5502 5491 5490 5498 5509 5531 5551 5566 5585 5602 5612 5628 5643 5661 5671 5678 5681 5682 5680 5678 5677 5677 5680 5683 5683 5677 5676
5519 5522 5512 5505 5499 5499 5500 5492 5485 5481 5475 5482 5487 5490 5500 5504 5502 5484 5470 5469 5472 5476 5488 5509 5531 5555 5577 5589 5607 5624 5645 5657 5664 5673 5678 5677 5679 5680 5682 5680 5678 5675 5673 5673
5526 5509 5502 5497 5503 5499 5497 5492 5484 5478 5474 5476 5499 5478 5505 5489 5473 5461 5454 5453 5457 5463 5473 5487 5507 5525 5550 5568 5584 5605 5625 5640 5649 5658 5666 5669 5669 5677 5677 5674 5673 5671 5669 5665
5507 5503 5500 5503 5499 5497 5495 5484 5487 5481 5471 5469 5492 5474 5488 5450 5438 5442 5438 5440 5445 5454 5463 5478 5496 5513 5531 5547 5568 5587 5611 5623 5633 5642 5646 5649 5656 5660 5659 5662 5665 5668 5667 5664
5500 5504 5502 5498 5495 5489 5484 5477 5485 5485 5475 5495 5504 5492 5451 5437 5427 5426 5426 5428 5438 5447 5458 5471 5490 5504 5521 5537 5556 5574 5594 5603 5612 5618 5624 5631 5634 5636 5642 5653 5656 5661 5660 5660
5494 5512 5508 5503 5502 5502 5485 5488 5486 5480 5497 5498 5507 5487 5448 5426 5421 5416 5414 5419 5428 5442 5452 5465 5481 5494 5512 5530 5544 5558 5574 5581 5587 5599 5606 5616 5617 5613 5626 5634 5642 5652 5655 5660
5491 5493 5504 5504 5503 5500 5489 5487 5494 5484 5491 5484 5495 5459 5450 5433 5421 5415 5417 5421 5425 5435 5446 5459 5472 5486 5501 5515 5528 5541 5550 5556 5562 5579 5583 5598 5592 5597 5612 5617 5627 5637 5648 5651
5477 5492 5509 5508 5503 5503 5501 5501 5490 5484 5483 5494 5491 5460 5440 5430 5422 5417 5417 5420 5425 5432 5440 5448 5460 5475 5487 5499 5511 5525 5535 5540 5550 5573 5576 5567 5582 5592 5598 5602 5616 5628 5636 5641
5473 5473 5503 5500 5502 5506 5495 5494 5494 5494 5490 5494 5498 5455 5422 5416 5413 5413 5411 5411 5414 5422 5430 5438 5450 5462 5473 5483 5496 5507 5516 5528 5537 5545 5545 5546 5557 5567 5577 5588 5600 5611 5629 5634
5477 5470 5484 5498 5507 5506 5502 5500 5499 5494 5500 5495 5478 5436 5414 5410 5407 5408 5405 5405 5409 5414 5418 5425 5439 5453 5463 5473 5483 5498 5508 5517 5519 5524 5531 5539 5549 5557 5564 5574 5586 5597 5610 5629
5465 5470 5478 5497 5499 5498 5493 5496 5492 5497 5493 5477 5483 5438 5409 5407 5405 5402 5396 5397 5398 5403 5408 5416 5433 5439 5442 5446 5463 5474 5484 5491 5499 5510 5519 5526 5531 5538 5546 5558 5570 5581 5592 5602
5465 5462 5461 5454 5449 5445 5465 5485 5498 5496 5490 5459 5436 5414 5404 5403 5401 5400 5395 5393 5391 5396 5404 5410 5416 5424 5434 5446 5455 5462 5466 5476 5490 5501 5508 5514 5519 5525 5533 5541 5550 5560 5569 5578
5464 5467 5457 5451 5441 5438 5440 5460 5470 5465 5459 5459 5421 5409 5397 5394 5394 5393 5391 5390 5395 5397 5399 5404 5410 5412 5419 5427 5436 5446 5460 5471 5478 5486 5492 5496 5500 5507 5515 5523 5531 5538 5546 5551
5463 5467 5459 5452 5449 5442 5434 5437 5446 5451 5440 5424 5416 5403 5392 5387 5386 5389 5388 5388 5387 5388 5389 5389 5391 5395 5403 5414 5425 5434 5445 5452 5460 5468 5472 5475 5481 5488 5495 5502 5511 5515 5523 5529
5453 5457 5468 5467 5457 5455 5444 5423 5430 5435 5431 5436 5428 5405 5391 5386 5384 5382 5383 5381 5382 5381 5378 5378 5379 5383 5389 5399 5412 5424 5428 5436 5449 5453 5456 5460 5465 5470 5475 5479 5486 5494 5498 5502
5449 5452 5461 5471 5463 5456 5425 5418 5418 5419 5416 5413 5407 5399 5390 5382 5376 5373 5371 5372 5372 5374 5375 5377 5377 5382 5387 5394 5406 5415 5425 5428 5430 5434 5437 5441 5447 5451 5456 5460 5464 5469 5475 5481
5441 5446 5462 5465 5457 5440 5430 5416 5417 5424 5409 5404 5406 5397 5394 5385 5390 5373 5367 5365 5364 5368 5370 5372 5373 5375 5381 5389 5399 5407 5412 5413 5413 5418 5422 5425 5430 5434 5439 5442 5444 5448 5452 5455
5441 5444 5455 5462 5464 5456 5417 5410 5414 5420 5418 5395 5396 5397 5397 5402 5406 5373 5358 5357 5357 5363 5367 5369 5371 5371 5376 5382 5389 5395 5397 5402 5407 5407 5409 5412 5416 5419 5421 5424 5426 5428 5433 5437
5439 5439 5436 5448 5444 5423 5403 5404 5413 5428 5412 5391 5388 5387 5394 5386 5374 5359 5353 5352 5353 5358 5362 5363 5363 5363 5368 5374 5377 5382 5385 5384 5387 5393 5396 5400 5403 5406 5408 5412 5415 5415 5419 5424
5424 5431 5426 5430 5432 5431 5396 5406 5419 5398 5392 5388 5383 5378 5374 5368 5361 5355 5349 5349 5352 5351 5353 5353 5354 5357 5359 5363 5366 5369 5371 5373 5377 5380 5385 5388 5385 5386 5387 5391 5394 5396 5400 5405
5419 5416 5421 5411 5406 5388 5384 5387 5388 5389 5386 5380 5378 5374 5370 5363 5357 5352 5349 5347 5345 5346 5343 5344 5349 5349 5351 5351 5353 5355 5354 5362 5366 5370 5371 5369 5372 5374 5371 5374 5377 5381 5383 5385
5406 5407 5403 5398 5385 5382 5378 5376 5376 5377 5375 5372 5369 5365 5363 5358 5350 5345 5342 5341 5338 5337 5338 5342 5343 5341 5336 5336 5338 5339 5343 5346 5353 5354 5351 5355 5355 5354 5355 5357 5358 5358 5361 5364
5400 5401 5396 5388 5383 5376 5371 5371 5369 5366 5365 5360 5357 5355 5352 5348 5341 5338 5334 5331 5327 5326 5326 5325 5326 5325 5324 5326 5327 5326 5328 5333 5338 5333 5335 5335 5334 5336 5338 5336 5334 5337 5336 5338
5393 5393 5394 5397 5391 5387 5377 5370 5368 5366 5359 5356 5353 5347 5343 5342 5336 5331 5327 5323 5321 5319 5316 5315 5315 5314 5313 5313 5314 5314 5315 5319 5319 5320 5318 5316 5317 5315 5314 5314 5317 5314 5315 5316